Regional Weather Roundup
Issued by NWS

Home | Current Version | Previous Version | Graphics & Text | Print | Product List | Glossary On
Versions: 1 2 3 4 5 6 7 8 9 10 11 12 13 14 15 16 17 18 19 20 21 22 23 24 25 26 27 28 29 30 31 32 33 34 35 36 37 38 39 40 41 42 43 44 45 46 47 48 49 50
484
ASUS43 KTOP 110008
RWRKS

WEATHER ROUNDUP FOR KANSAS
NATIONAL WEATHER SERVICE GOODLAND KS
600 PM CST WED FEB 10 2016

NOTE:  "FAIR" INDICATES FEW OR NO CLOUDS BELOW 12,000 FEET WITH NO
SIGNIFICANT WEATHER AND/OR OBSTRUCTIONS TO VISIBILITY.

KSZ001>006-013>018-027>032-041>047-110100-
NORTHWEST KANSAS

CITY           SKY/WX    TMP DP  RH WIND       PRES   REMARKS
GOODLAND       CLEAR     51  31  46 NW8       30.04R
6HR MIN TEMP:  51; 6HR MAX TEMP:  59;

HAYS           CLEAR     57  28  33 NW9       29.97R
HILL CITY      CLOUDY    50  31  48 NW14      29.97R
6HR MIN TEMP:  50; 6HR MAX TEMP:  56;

RUSSELL        CLEAR     54  31  41 NW12      29.94R
6HR MIN TEMP:  54; 6HR MAX TEMP:  65;

$$

KSZ061>065-074>080-084>089-110100-
SOUTHWEST KANSAS

CITY           SKY/WX    TMP DP  RH WIND       PRES   REMARKS
DODGE CITY     CLEAR     62  22  21 N9        29.99R
6HR MIN TEMP:  62; 6HR MAX TEMP:  74;

ELKHART          N/A     73  17  12 NW5         N/A
GARDEN CITY    CLEAR     61  22  22 N13       30.00R
6HR MIN TEMP:  61; 6HR MAX TEMP:  76;

GREAT BEND     CLEAR     57  28  33 NW10      29.95R
LIBERAL        CLEAR     70  16  12 N6        30.01S
PRATT          CLEAR     58  24  26 NW10      29.95R
6HR MIN TEMP:  58; 6HR MAX TEMP:  73;

$$

KSZ066>073-081>083-090>101-110100-
SOUTHEAST KANSAS

CITY           SKY/WX    TMP DP  RH WIND       PRES   REMARKS
CHANUTE        CLEAR     50  28  42 S7        29.90F
6HR MIN TEMP:  41; 6HR MAX TEMP:  59;

COFFEYVILLE    CLEAR     54  28  36 SE7       29.92S
6HR MIN TEMP:  44; 6HR MAX TEMP:  62;

HUTCHINSON     CLEAR     61  30  31 NW12      29.92R
6HR MIN TEMP:  54; 6HR MAX TEMP:  74;

MEDICINE LODGE   N/A     68  23  18 NW8       29.93R
NEWTON         CLEAR     61  28  29 NW12      29.93R
PARSONS        CLEAR     56  29  35 S6        29.91F
6HR MIN TEMP:  43; 6HR MAX TEMP:  61;

WICHITA INTL   CLEAR     64  27  24 W9        29.90R
6HR MIN TEMP:  50; 6HR MAX TEMP:  71;

WICHITA JABRA  CLEAR     64  31  28 W6        29.90R
6HR MIN TEMP:  48; 6HR MAX TEMP:  67;

WICHITA MCCONL CLEAR     63  33  32 SW7       29.90R
WINFIELD       CLEAR     62  34  35 CALM      29.91R
6HR MIN TEMP:  52; 6HR MAX TEMP:  69;

$$

KSZ007>012-019>026-033>040-048>060-102>105-110100-
NORTHEAST KANSAS

CITY           SKY/WX    TMP DP  RH WIND       PRES   REMARKS
CONCORDIA      CLEAR     48  30  49 W5        29.92R
6HR MIN TEMP:  48; 6HR MAX TEMP:  56;

EMPORIA        CLEAR     58  30  34 SW5       29.88R
6HR MIN TEMP:  47; 6HR MAX TEMP:  64;

LAWRENCE       CLEAR     47  23  38 E8        29.92R
6HR MIN TEMP:  41; 6HR MAX TEMP:  54;

MANHATTAN      CLEAR     56  31  38 N5        29.91R
6HR MIN TEMP:  47; 6HR MAX TEMP:  63;

MARYSVILLE     CLEAR     41  32  70 N6        29.93R
OLATHE IND     CLEAR     46  24  42 E7        29.93R
6HR MIN TEMP:  39; 6HR MAX TEMP:  51;

OLATHE EXE     CLEAR     46  21  37 E5        29.93R
6HR MIN TEMP:  37; 6HR MAX TEMP:  48;

SALINA         CLEAR     57  30  35 W14       29.92R
6HR MIN TEMP:  57; 6HR MAX TEMP:  70;

TOPEKA BILLARD CLEAR     50  27  40 N5        29.91R
6HR MIN TEMP:  43; 6HR MAX TEMP:  60;

TOPEKA FORBES  CLEAR     50  27  40 NW7       29.90R
6HR MIN TEMP:  44; 6HR MAX TEMP:  60;

$$




USA.gov is the U.S. government's official web portal to all federal, state and local government web resources and services.